AirNav   Pilot Hours Calculator
 
 393 users online  

GA66 Bridge Building Heliport
Atlanta, Georgia, USA

GOING TO ATLANTA?


FAA INFORMATION EFFECTIVE 07 NOVEMBER 2019

Location

FAA Identifier: GA66
Lat/Long: 33-48-34.8100N 084-23-42.5400W
33-48.580167N 084-23.709000W
33.8096694,-84.3951500
(estimated)
Elevation: 939 ft. / 286 m (estimated)
Variation: 02W (1985)
From city: 3 miles N of ATLANTA, GA
Time zone: UTC -5 (UTC -4 during Daylight Saving Time)
Zip code: 30309

Heliport Operations

Heliport use: Private use, MEDICAL USE.
Activation date: 04/1989
Control tower: no
ARTCC: ATLANTA CENTER
FSS: MACON FLIGHT SERVICE STATION
Attendance: UNATNDD
Wind indicator: yes
Segmented circle: no
Lights: FOR PERIMETER LGTS CALL 404-605-5000.

Heliport Communications

WX ASOS at PDK (6 nm NE): PHONE 770-457-1691
WX ASOS at FTY (7 nm W): PHONE 404-696-5660
WX ASOS at ATL (11 nm S): PHONE 404-559-5166
WX AWOS-3PT at RYY (16 nm NW): PHONE 770-425-3406

Nearby radio navigation aids

VOR radial/distance  VOR name  Freq  Var
PDKr235/6.2PEACHTREE VOR/DME116.6005W
ATLr015/11.0ATLANTA VORTAC116.9005W

 
NDB name  Hdg/Dist  Freq  Var  ID
FLANC082/12.534405WFT ..-. -
CHERO175/27.041505WDJD -.. .--- -..
PECAT014/30.931605WFFC ..-. ..-. -.-.
CARTERSVILLE140/32.330804WEVZ . ...- --..
ALCOVY292/32.437003WVOF ...- --- ..-.
MONROE281/33.639204WJNM .--- -. --
FLOWERY BRANCH229/33.936503WFKV ..-. -.- ...-
COWETA COUNTY029/36.823403WEQQ . --.- --.-
CARROLLTON072/39.527804WGPQ --. .--. --.-

Heliport Services

Runway Information

Helipad H1

Dimensions: 45 x 45 ft. / 14 x 14 m
Surface: concrete
ROOFTOP.
Runway edge lights: PERI
Latitude: 33-48.580167N
Longitude: 084-23.709000W
Elevation: 939.0 ft.
Traffic pattern: leftleft

Heliport Ownership and Management from official FAA records

Ownership: Privately-owned
Owner: THE PIEDMONT HOSPITAL INC
1968 PEACHTREE RD
ATLANTA, GA 30309
Phone (404) 605-2097
Manager: WILLIAM DAVIDSON
1968 PEACHTREE RD
ATLANTA, GA 30309
Phone (404) 605-3349

Additional Remarks

FOR CD CTC ATLANTA APCH AT 678-364-6131.

Instrument Procedures

There are no published instrument procedures at GA66.

Some nearby airports with instrument procedures:

KPDK - Dekalb-Peachtree Airport (6 nm NE)
KFTY - Fulton County Airport-Brown Field (7 nm W)
KMGE - Dobbins Air Reserve Base (9 nm NW)
KATL - Hartsfield - Jackson Atlanta International Airport (11 nm S)
KRYY - Cobb County International Airport-McCollum Field (16 nm NW)
 
Loc | Ops | Rwys | IFR | FBO | Links
Com | Nav | Svcs | Stats | Notes
Area around GA66 (Bridge Building Heliport)
 
Road maps at: MapQuest Bing Google
 
Aerial photo
No photo
 
Sectional chart

 
Airport distance calculator
Flying to Bridge Building Heliport? Find the distance to fly.

From to GA66

Sunrise and sunset
Times for 13-Nov-2019
 Local
(UTC-5)
 Zulu
(UTC)
Morning civil twilight06:4311:43
Sunrise07:0912:09
Sunset17:3522:35
Evening civil twilight18:0123:01

Current date and time
Zulu (UTC)  13-Nov-2019 11:15:53
Local (UTC-5)  13-Nov-2019 06:15:53
 
METAR
KFTY 
6nm W 
131053Z 36003KT 10SM CLR M06/M08 A3031 RMK AO2 SLP272 T10561078
KPDK 
6nm NE 
131053Z AUTO 36003KT 10SM CLR M06/M08 A3030 RMK AO2 SLP282 T10611078
KMGE 
9nm NW 
131056Z AUTO 00000KT 10SM CLR M06/M08 A3029 RMK AO2 SLP271 T10581085 $
KATL 
11nm S 
131052Z 02005KT 10SM CLR M04/M08 A3028 RMK AO2 SLP267 T10391083
KRYY 
16nm NW 
131050Z AUTO 29003KT 10SM CLR M06/M08 A3031 RMK AO2 SLP985 T10611078 FZRANO $
TAF
KFTY 
6nm W 
130534Z 1306/1406 34005KT P6SM SKC FM130900 02004KT P6SM SKC FM131300 06005KT P6SM FEW250
KPDK 
6nm NE 
130534Z 1306/1406 34009KT P6SM SKC FM130800 04003KT P6SM SKC FM131400 09006KT P6SM FEW250
KMGE 
9nm NW 
130600Z 1306/1412 36012KT 9999 SKC QNH3026INS BECMG 1314/1315 09010KT 9999 SKC QNH3026INS BECMG 1405/1406 10008KT 9999 SCT250 520202 QNH3023INS TX09/1321Z TNM04/1306Z
KATL 
11nm S 
130957Z 1310/1412 01007KT P6SM SKC FM131200 05008KT P6SM SKC FM131400 09008KT P6SM FEW250 FM140900 08008KT P6SM SCT250
KRYY 
16nm NW 
130534Z 1306/1406 35006KT P6SM SKC FM130900 05003KT P6SM SKC FM131500 09005KT P6SM FEW250
NOTAMs
Click for the latest NOTAMs
NOTAMs are issued by the DoD/FAA and will open in a separate window not controlled by AirNav.

 

 
 

Would you like to see your business listed on this page?

 If your business provides an interesting product or service to pilots, flight crews, aircraft, or users of the Bridge Building Heliport, you should consider listing it here.  To start the listing process, click on the button below
 
Add a business
 

Other Pages about Bridge Building Heliport

Update a link
 
Copyright © AirNav, LLC. All rights reserved. Privacy Policy  Contact